Weather History for Orangeburg, SC

Change the Weather History Date:

Monday, December 17, 2012

  Actual Average Record
Temperature  
Mean Temperature 60 °F 47 °F  
Max Temperature 63 °F 58 °F 77 °F (1956)
Min Temperature 56 °F 37 °F 18 °F (1955)
Degree Days  
Heating Degree Days 5 18  
Month to date heating degree days 127 271  
Since 1 July heating degree days 577 640  
Cooling Degree Days 0 0  
Month to date cooling degree days 2 0  
Year to date cooling degree days 2322 2102  
Growing Degree Days 9 (Base 50)    
Moisture  
Dew Point 57 °F    
Average Humidity 91    
Maximum Humidity 93    
Minimum Humidity 84    
Precipitation  
Precipitation 0.74 in 0.12 in 1.82 in (1970)
Month to date precipitation 1.55 1.91  
Year to date precipitation 39.85 45.32  
Sea Level Pressure  
Sea Level Pressure 29.84 in    
Wind  
Wind Speed 5 mph (WSW)    
Max Wind Speed 16 mph    
Max Gust Speed 23 mph    
Visibility 7 miles    
Events Rain    
T = Trace of Precipitation, MM = Missing Value Source: NWS Daily Summary

Daily Weather History Graph

Daily Weather History Graph

Search for Another Location

Airport:

Trip Planner

Search our weather history database for the weather conditions in past years. The results will help you decide how hot, cold, wet, or windy it might be!

Date:

Astronomy

Dec. 17, 2012 Rise Set
Actual Time 7:21 AM EST 5:18 PM EST
Civil Twilight 6:54 AM EST 5:45 PM EST
Nautical Twilight 6:22 AM EST 6:16 PM EST
Astronomical Twilight 5:52 AM EST 6:47 PM EST
Moon 10:41 AM EST (12/17) 10:24 PM EST (12/17)
Length of Visible Light 10h 51m
Length of Day
9h 56m
Waxing Crescent, 24% of the Moon is Illuminated
Dec 17
Waxing Crescent
Dec 20
First Quarter
Dec 28
Full
Jan 4
Last Quarter
Jan 11
New

Hourly Weather History & Observations

Time (EST) Temp. Dew Point Humidity Pressure Visibility Wind Dir Wind Speed Gust Speed Precip Events Conditions
12:53 AM 63.0 °F 60.1 °F 90% 29.88 in 10.0 mi SSW 3.5 mph - 0.01 in   Overcast
1:53 AM 63.0 °F 61.0 °F 93% 29.88 in 6.0 mi Calm Calm - 0.03 in Rain Light Rain
2:34 AM 62.6 °F 60.8 °F 94% 29.88 in 4.0 mi Calm Calm - 0.00 in Rain Light Rain
2:40 AM 62.6 °F 60.8 °F 94% 29.88 in 2.5 mi SW 3.5 mph - 0.01 in Rain Light Rain
2:50 AM 62.6 °F 60.8 °F 94% 29.90 in 2.0 mi NW 12.7 mph 19.6 mph 0.04 in Rain Rain
2:51 AM 62.1 °F 60.1 °F 93% 29.90 in 2.0 mi NW 13.8 mph 23.0 mph 0.04 in Rain Heavy Rain
3:02 AM 59.0 °F 55.4 °F 88% 29.90 in 5.0 mi NNW 12.7 mph 21.9 mph 0.01 in Rain Light Rain
3:53 AM 57.9 °F 55.0 °F 90% 29.88 in 10.0 mi North 4.6 mph - 0.01 in   Overcast
4:04 AM 57.2 °F 55.4 °F 94% 29.89 in 10.0 mi Calm Calm - N/A   Overcast
4:53 AM 57.0 °F 55.0 °F 93% 29.83 in 10.0 mi SE 4.6 mph - 0.00 in   Mostly Cloudy
5:04 AM 57.2 °F 55.4 °F 94% 29.83 in 10.0 mi Calm Calm - N/A   Mostly Cloudy
5:13 AM 57.2 °F 55.4 °F 94% 29.83 in 10.0 mi Calm Calm - N/A   Mostly Cloudy
5:53 AM 57.0 °F 55.0 °F 93% 29.83 in 10.0 mi Calm Calm - N/A   Overcast
6:33 AM 57.2 °F 55.4 °F 94% 29.81 in 10.0 mi ESE 3.5 mph - N/A   Overcast
6:53 AM 57.0 °F 55.0 °F 93% 29.85 in 10.0 mi NW 4.6 mph - N/A   Mostly Cloudy
7:00 AM 57.2 °F 55.4 °F 94% 29.86 in 10.0 mi WNW 3.5 mph - N/A   Mostly Cloudy
7:37 AM 55.4 °F 55.4 °F 100% 29.87 in 6.0 mi Calm Calm - N/A   Scattered Clouds
7:53 AM 55.9 °F 54.0 °F 93% 29.86 in 1.5 mi Calm Calm - N/A   Clear
8:14 AM 57.2 °F 55.4 °F 94% 29.88 in 2.0 mi SW 4.6 mph - N/A   Clear
8:23 AM 57.2 °F 55.4 °F 94% 29.88 in 6.0 mi SW 3.5 mph - N/A   Clear
8:32 AM 57.2 °F 55.4 °F 94% 29.88 in 7.0 mi Calm Calm - N/A   Scattered Clouds
8:41 AM 57.2 °F 55.4 °F 94% 29.88 in 7.0 mi WSW 3.5 mph - N/A   Mostly Cloudy
8:53 AM 57.0 °F 55.9 °F 96% 29.89 in 8.0 mi WSW 3.5 mph - N/A   Overcast
9:53 AM 59.0 °F 55.9 °F 90% 29.89 in 10.0 mi SW 4.6 mph - N/A   Mostly Cloudy
10:01 AM 59.0 °F 55.4 °F 88% 29.89 in 10.0 mi SW 3.5 mph - N/A   Scattered Clouds
10:51 AM 60.8 °F 57.2 °F 88% 29.87 in 10.0 mi Calm Calm - N/A   Overcast
10:53 AM 60.1 °F 57.0 °F 90% 29.87 in 10.0 mi Calm Calm - N/A   Overcast
11:53 AM 60.1 °F 57.0 °F 90% 29.86 in 4.0 mi NNW 4.6 mph - 0.03 in Rain Rain
12:07 PM 60.8 °F 57.2 °F 88% 29.85 in 10.0 mi Calm Calm - 0.00 in Rain Light Rain
12:29 PM 60.8 °F 57.2 °F 88% 29.87 in 2.0 mi SW 5.8 mph - 0.04 in Rain Rain
12:49 PM 60.8 °F 57.2 °F 88% 29.86 in 4.0 mi SW 4.6 mph - 0.08 in Rain Rain
12:53 PM 60.1 °F 57.9 °F 93% 29.86 in 4.0 mi SSW 4.6 mph - 0.08 in Rain Light Rain
1:40 PM 60.8 °F 57.2 °F 88% 29.86 in 10.0 mi WSW 11.5 mph - 0.05 in Rain Light Rain
1:53 PM 60.1 °F 57.9 °F 93% 29.83 in 3.0 mi SW 8.1 mph - 0.08 in Rain Rain
2:38 PM 60.8 °F 57.2 °F 88% 29.81 in 1.8 mi Calm Calm - 0.10 in Rain Heavy Rain
2:45 PM 60.8 °F 57.2 °F 88% 29.81 in 2.0 mi NW 4.6 mph - 0.11 in Rain Rain
2:53 PM 60.1 °F 57.0 °F 90% 29.79 in 6.0 mi North 4.6 mph - 0.11 in Rain Light Rain
3:05 PM 60.8 °F 57.2 °F 88% 29.80 in 1.8 mi Calm Calm - 0.06 in Rain Heavy Rain
3:14 PM 60.8 °F 57.2 °F 88% 29.77 in 3.0 mi North 5.8 mph - 0.07 in Rain Light Rain
3:38 PM 60.8 °F 57.2 °F 88% 29.82 in 1.8 mi WSW 8.1 mph - 0.15 in Rain Heavy Rain
3:53 PM 60.1 °F 57.9 °F 93% 29.83 in 2.5 mi West 5.8 mph - 0.21 in Rain Heavy Rain
4:23 PM 60.8 °F 57.2 °F 88% 29.79 in 7.0 mi ESE 6.9 mph - 0.10 in Rain Light Rain
4:53 PM 59.0 °F 57.9 °F 96% 29.79 in 10.0 mi SSE 5.8 mph - 0.11 in Rain Light Rain
7:53 PM 59.0 °F 55.9 °F 90% 29.75 in 10.0 mi Calm Calm - N/A   Clear
8:53 PM 59.0 °F 55.9 °F 90% 29.76 in 10.0 mi SW 4.6 mph - N/A   Overcast
9:35 PM 59.0 °F 55.4 °F 88% 29.77 in 10.0 mi SW 6.9 mph - N/A   Overcast
9:53 PM 60.1 °F 55.9 °F 86% 29.76 in 10.0 mi SW 8.1 mph - N/A   Overcast
10:50 PM 60.8 °F 57.2 °F 88% 29.77 in 10.0 mi SW 8.1 mph - N/A   Overcast
10:53 PM 60.1 °F 57.0 °F 90% 29.76 in 10.0 mi SW 8.1 mph - N/A   Overcast
11:53 PM 60.1 °F 57.0 °F 90% 29.75 in 10.0 mi SW 8.1 mph - N/A   Overcast